Content
SEND FEEDBACK

Daily
Averages
Monthly
Summary
Norfolk Island

KINGSTON, NORFOLK ISLAND


Home > Oceania > Norfolk Island
Elevation: 370 feet     Latitude: 29 03S     Longitude: 167 56E

WEATHER
 
SELECT A DAY
Number of Records: 297,026;   Date Range: 7/1/96 - 7/28/14
 
SHARE

PRINT THIS DATA

[ ← Previous Day ]
WEATHER ALMANAC - JANUARY 31, 2013
[ Next Day → ]
[ °C ]   °F
Weather ElementAverageHighLow
Temperature71.8 °F77 °F (2:00 pm)69 °F (11:30 pm)
Dewpoint62.1 °F64.4 °F (3:00 pm)57.2 °F (10:00 am)
Humidity70.6 %83 % (7:30 pm)54 % (12:00 pm)
Barometer29.91 in29.95 in (12:00 am)29.86 in (3:19 pm)
Wind Speed16.9 mph19.6 mph (8:30 am)
Wind Gust31.1 mph (6:11 am)
Weather ElementAverage
Visibility5.8 mi
Wind DirectionESE (114.3 °)

Weather ElementTotal
Precipitation---
Cooling Degree Days8 (Base 65)
Growing Degree Days23 (Base 50)
Averaged from 79 records on January 31, 2013
WEATHER CONDITIONS BREAKOUT
WIND DIRECTION BREAKOUT
WEATHER BY HOUR - JANUARY 31, 2013
[ °C ]   °F
Local TimeTemperatureDewpointHumidityBarometerVisibilityWind DirectionWind SpeedGust SpeedPrecipitationEventsConditions
12:00 AM69.8 °F62.6 °F78 %29.95 in5.6 miESE (110°)17.3 mphMostly Cloudy
12:30 AM69.8 °F62.6 °F78 %29.95 in5.6 miESE (110°)18.4 mphOvercast
1:00 AM69.8 °F62.6 °F78 %29.95 in5.6 miESE (110°)17.3 mphMostly Cloudy
1:22 AM69.8 °F62.6 °F78 %29.95 in5.0 miESE (110°)17.3 mph28.8 mphMostly Cloudy
1:30 AM69.8 °F62.6 °F78 %29.95 in5.6 miESE (110°)18.4 mphMostly Cloudy
2:06 AM69.8 °F62.6 °F78 %29.95 in5.6 miESE (110°)17.3 mph29.9 mphOvercast
2:30 AM70.0 °F62.0 °F69 %29.93 inESE (110°)16.1 mph
2:30 AM69.8 °F62.6 °F78 %29.92 in5.6 miESE (110°)16.1 mphOvercast
3:00 AM69.8 °F62.6 °F78 %29.92 in5.6 miEast (100°)18.4 mphOvercast
3:00 AM70.0 °F62.0 °F70 %29.92 in6.0 miEast (100°)18.4 mphOvercast
3:28 AM69.8 °F62.6 °F78 %29.92 in5.6 miESE (110°)17.3 mph28.8 mphOvercast
3:30 AM69.8 °F62.6 °F78 %29.92 in5.6 miESE (110°)17.3 mph28.8 mphOvercast
4:00 AM69.8 °F60.8 °F73 %29.92 in5.6 miESE (110°)17.3 mph28.8 mphOvercast
4:30 AM69.8 °F62.6 °F78 %29.92 in5.6 miESE (110°)17.3 mphOvercast
5:00 AM69.8 °F62.6 °F78 %29.92 in5.6 miESE (120°)17.3 mphOvercast
5:20 AM69.8 °F62.6 °F78 %29.92 in6.2 miESE (110°)17.3 mph28.8 mphOvercast
5:30 AM70.0 °F63.0 °F71 %29.92 inESE (110°)16.1 mph
5:30 AM69.8 °F62.6 °F78 %29.92 in5.6 miESE (110°)16.1 mphOvercast
6:00 AM69.8 °F62.6 °F78 %29.92 in5.6 miESE (110°)16.1 mphOvercast
6:00 AM70.0 °F63.0 °F72 %29.93 in6.0 miESE (110°)16.1 mphOvercast
6:11 AM69.8 °F62.6 °F78 %29.92 in5.6 miESE (110°)17.3 mph31.1 mphOvercast
6:31 AM69.8 °F62.6 °F78 %29.95 in5.6 miESE (110°)18.4 mph29.9 mphOvercast
7:00 AM69.8 °F60.8 °F73 %29.95 in6.2 miESE (110°)17.3 mphOvercast
7:15 AM69.8 °F59.0 °F68 %29.95 in6.2 miESE (110°)17.3 mph28.8 mphOvercast
7:30 AM69.8 °F62.6 °F78 %29.95 in6.2 miESE (110°)15.0 mphMostly Cloudy
7:53 AM71.6 °F60.8 °F69 %29.95 in5.6 miESE (110°)17.3 mph28.8 mphScattered Clouds
8:00 AM71.6 °F62.6 °F73 %29.95 in5.6 miESE (110°)16.1 mph28.8 mphScattered Clouds
8:30 AM72.0 °F61.0 °F60 %29.94 inESE (110°)19.6 mph
8:30 AM71.6 °F60.8 °F69 %29.95 in6.2 miESE (110°)19.6 mphMostly Cloudy
8:42 AM71.6 °F62.6 °F73 %29.95 in5.6 miESE (120°)17.3 mph28.8 mphMostly Cloudy
9:00 AM72.0 °F62.0 °F63 %29.94 in6.0 miESE (110°)16.1 mphHaze
9:00 AM73.4 °F62.6 °F69 %29.95 in5.6 miESE (110°)16.1 mphMostly Cloudy
9:25 AM73.4 °F60.8 °F65 %29.95 in6.2 miESE (110°)17.3 mph31.1 mphMostly Cloudy
9:30 AM73.4 °F60.8 °F65 %29.95 in6.2 miESE (110°)19.6 mph31.1 mphMostly Cloudy
10:00 AM73.4 °F57.2 °F57 %29.95 in6.2 miESE (110°)18.4 mph29.9 mphMostly Cloudy
10:30 AM73.4 °F60.8 °F65 %29.92 in6.2 miESE (120°)18.4 mphScattered Clouds
10:46 AM75.2 °F60.8 °F61 %29.92 in6.2 miESE (110°)17.3 mph28.8 mphMostly Cloudy
11:00 AM75.2 °F60.8 °F61 %29.92 in6.2 miESE (110°)17.3 mph29.9 mphMostly Cloudy
11:30 AM75.2 °F62.6 °F65 %29.92 in6.2 miESE (120°)16.1 mphPartly Cloudy
11:30 AM75.0 °F62.0 °F56 %29.92 inESE (120°)16.1 mph
11:37 AM75.2 °F62.6 °F65 %29.92 in6.2 miESE (120°)17.3 mph29.9 mphPartly Cloudy
12:00 PM74.0 °F61.0 °F54 %29.91 in7.0 miESE (120°)18.4 mphHaze
12:00 PM75.2 °F60.8 °F61 %29.92 in6.2 miESE (120°)18.4 mph31.1 mphScattered Clouds
12:30 PM75.2 °F60.8 °F61 %29.92 in6.2 miESE (120°)16.1 mphScattered Clouds
12:39 PM75.2 °F62.6 °F65 %29.92 in6.2 miESE (120°)17.3 mph28.8 mphScattered Clouds
1:00 PM75.2 °F60.8 °F61 %29.92 in6.2 miESE (120°)18.4 mph29.9 mphScattered Clouds
1:30 PM75.2 °F62.6 °F65 %29.89 in5.6 miESE (110°)18.4 mphPartly Cloudy
1:57 PM75.2 °F60.8 °F61 %29.89 in6.2 miESE (120°)17.3 mph31.1 mphScattered Clouds
2:00 PM77.0 °F62.6 °F61 %29.89 in6.2 miESE (110°)17.3 mph31.1 mph
2:30 PM75.2 °F60.8 °F61 %29.89 in6.2 miESE (120°)18.4 mphScattered Clouds
2:30 PM74.0 °F62.0 °F56 %29.88 inESE (120°)18.4 mph
2:41 PM75.2 °F62.6 °F65 %29.89 in5.6 miESE (120°)18.4 mph31.1 mphPartly Cloudy
3:00 PM75.0 °F64.0 °F59 %29.88 in5.0 miSE (130°)17.3 mphHaze
3:00 PM75.2 °F64.4 °F69 %29.89 in5.0 miSE (130°)17.3 mphScattered Clouds
3:19 PM75.2 °F62.6 °F65 %29.86 in6.2 miESE (120°)17.3 mph31.1 mphScattered Clouds
3:30 PM75.2 °F62.6 °F65 %29.86 in6.2 miESE (120°)16.1 mphScattered Clouds
3:44 PM73.4 °F62.6 °F69 %29.86 in6.2 miSE (130°)18.4 mph31.1 mphMostly Cloudy
4:00 PM73.4 °F64.4 °F73 %29.86 in5.6 miESE (120°)15.0 mphScattered Clouds
4:30 PM73.4 °F62.6 °F69 %29.86 in5.6 miESE (120°)13.8 mphScattered Clouds
5:00 PM71.6 °F62.6 °F73 %29.86 in5.6 miESE (120°)17.3 mph28.8 mphScattered Clouds
5:30 PM72.0 °F64.0 °F68 %29.86 inESE (120°)15.0 mph
5:30 PM71.6 °F64.4 °F78 %29.86 in5.0 miESE (120°)15.0 mphMostly Cloudy
6:00 PM71.0 °F63.0 °F68 %29.87 in7.0 miESE (120°)16.1 mphHaze
6:00 PM71.6 °F62.6 °F73 %29.86 in5.0 miESE (120°)16.1 mphMostly Cloudy
6:30 PM69.8 °F62.6 °F78 %29.89 in5.6 miESE (120°)15.0 mphScattered Clouds
7:00 PM69.8 °F62.6 °F78 %29.89 in5.6 miESE (110°)13.8 mph25.3 mphScattered Clouds
7:30 PM69.8 °F64.4 °F83 %29.89 in5.0 miESE (110°)15.0 mphMostly Cloudy
7:54 PM69.8 °F62.6 °F78 %29.89 in5.6 miESE (110°)18.4 mph29.9 mphMostly Cloudy
8:00 PM69.8 °F62.6 °F78 %29.89 in5.6 miESE (110°)18.4 mph29.9 mphMostly Cloudy
8:30 PM70.0 °F62.0 °F70 %29.89 inESE (110°)15.0 mph
8:33 PM69.8 °F62.6 °F78 %29.89 in5.6 miESE (110°)17.3 mph28.8 mphMostly Cloudy
9:00 PM70.0 °F62.0 °F67 %29.89 in6.0 miESE (110°)17.3 mphHaze
9:00 PM69.8 °F60.8 °F73 %29.89 in5.6 miESE (110°)17.3 mph28.8 mphMostly Cloudy
9:30 PM69.8 °F62.6 °F78 %29.89 in5.6 miESE (110°)18.4 mphScattered Clouds
10:00 PM69.8 °F62.6 °F78 %29.89 in5.6 miESE (110°)15.0 mphScattered Clouds
10:30 PM69.8 °F62.6 °F78 %29.89 in5.6 miESE (120°)11.5 mphMostly Cloudy
11:00 PM69.8 °F62.6 °F78 %29.89 in5.6 miSE (130°)15.0 mphScattered Clouds
11:30 PM69.0 °F61.0 °F70 %29.86 inESE (120°)12.7 mph
11:30 PM69.8 °F60.8 °F73 %29.86 in6.2 miESE (120°)12.7 mphMostly Cloudy
Hourly data recorded from YSNF, located miles away from Kingston, Norfolk Island







STORIES FROM OUR PARTNERS